Location: Newark
(7.0858°N, 171.3717°E)
Time: 03:37:26
(UTC+00:00)

A-11 Canister half - Pass Details

Date: 09 December 2020
Orbit: 1517 x 1683 km, 47.2° (Epoch: 16 January)

Event Time Altitude Azimuth Distance (km) Brightness Sun altitude
Rises 07:24:21 0° 297° (WNW) 4,927 12.3 -15.9°
Reaches altitude 10° 07:28:10 10° 286° (WNW) 3,933 11.9 -16.8°
Maximum altitude 07:36:15 28° 232° (SW) 2,754 11.1 -18.7°
Drops below altitude 10° 07:44:16 10° 177° (S) 3,861 11.3 -20.5°
Sets 07:48:01 0° 165° (SSE) 4,822 11.7 -21.4°
